Tracking 35331 objects as of 16-Sep-2026
HD Live streaming from Space Station
objects crossing your sky now

YUNHAI 1-02 DEB


YUNHAI 1-02 DEB is no longer on orbit


NORAD ID: 48205
Int'l Code: 2019-063Z
Launch date: September 25, 2019
Source: People's Republic of China (PRC)
Launch site: Jiuquan Satellite Launch Center, China (JSC)
Decay date: 2022-10-19

Note: This is SATELLITE DEBRIS
Your satellite tracking list
Your tracking list is empty




NASA's NSSDC Master Catalog

Two Line Element Set (TLE):
1 48205U 19063Z   22287.96386571  .04400074  00000-0  22280+0 0  9996
2 48205  98.3601 287.4553 0049257 209.9330 149.9079 15.11237124 80425
Source of the keplerian elements: AFSPC